Home   Weather   Caen   Past weeks

Flag for France Past Weather in Caen, Lower Normandy, France — Yesterday and Last 2 Weeks

Now
68 °F

Overcast.


Feels Like: 68 °F
Forecast: 59 / 74 °F
Wind: 13 mph from Southwest

Location: Caen Airport

Current Time: Jun 24, 2017 at 12:38:55 pm

Latest Report: Jun 24, 2017 at 12:00 pm


Visibility: N/A

Pressure: 30.09 "Hg

Humidity: 69%

Dew Point: 57 °F

Location of CaenLocation

Past Weather in Caen — Graph

°F

Caen Temperature Yesterday

Maximum temperature yesterday: 66 °F (at 5:00 pm)
Minimum temperature yesterday: 55 °F (at 1:00 am)
Average temperature yesterday: 61 °F

High & Low Weather Summary for the Past Weeks

 TemperatureHumidityPressure
High95 °F (Jun 21, 3:00 pm)100% (Jun 12, 2:30 am)30.39 "Hg (Jun 12, 2:30 am)
Low45 °F (Jun 13, 5:00 am)30% (Jun 21, 3:00 pm)29.89 "Hg (Jun 21, 6:00 pm)
Average66 °F74%30.09 "Hg
* Reported Jun 9 11:00 am — Jun 24 11:00 am, Caen. Weather by CustomWeather, © 2017

Note: Actual official high and low records may vary slightly from our data, if they occured in-between our weather recording intervals... More about our weather records

Advertising

Caen Weather History for the Previous 24 Hours

Scroll right to see more
 ConditionsComfort  
Time TempWeatherWind HumidityBarometerVisibility
11:00 am
Sat, Jun 24
64 °FOvercast.10 mph73%30.09 "HgN/A
10:30 am64 °FOvercast.13 mph73%30.09 "HgN/A
10:00 am64 °FOvercast.12 mph73%30.09 "HgN/A
9:30 am64 °FPartly sunny.13 mph73%30.09 "HgN/A
9:00 am63 °FPartly sunny.14 mph77%30.09 "HgN/A
8:30 am61 °FMostly cloudy.7 mph88%30.09 "HgN/A
8:00 am59 °FPartly sunny.6 mph94%30.09 "HgN/A
7:30 am57 °FPassing clouds.5 mph94%30.09 "HgN/A
7:00 am55 °FSunny.5 mph94%30.09 "Hg10 mi
6:30 am52 °FSunny.7 mph100%30.09 "Hg10 mi
6:00 am52 °FPassing clouds.7 mph100%30.09 "HgN/A
5:30 am52 °FClear.5 mph94%30.09 "Hg10 mi
5:00 am52 °FPassing clouds.5 mph94%30.09 "HgN/A
4:30 am52 °FClear.3 mph94%30.09 "Hg10 mi
4:00 am52 °FClear.7 mph100%30.12 "Hg10 mi
3:30 am52 °FClear.5 mph94%30.12 "Hg10 mi
3:00 am54 °FClear.5 mph88%30.12 "Hg10 mi
2:30 am54 °FClear.7 mph94%30.12 "Hg10 mi
2:00 am54 °FClear.8 mph94%30.12 "Hg10 mi
1:30 am54 °FClear.7 mph94%30.12 "Hg10 mi
1:00 am54 °FClear.8 mph94%30.15 "Hg10 mi
12:30 am54 °FClear.8 mph88%30.15 "Hg10 mi
12:00 am55 °FClear.8 mph82%30.15 "Hg10 mi
11:30 pm
Fri, Jun 23
55 °FClear.7 mph82%30.15 "Hg10 mi
11:00 pm57 °FPassing clouds.5 mph82%30.15 "HgN/A
10:30 pm59 °FPassing clouds.6 mph77%30.15 "HgN/A
10:00 pm63 °FOvercast.6 mph68%30.15 "HgN/A
9:30 pm64 °FOvercast.6 mph64%30.15 "HgN/A
9:00 pm64 °FOvercast.9 mph64%30.15 "HgN/A
8:30 pm66 °FOvercast.7 mph64%30.15 "HgN/A
8:00 pm66 °FPartly sunny.10 mph60%30.15 "HgN/A
7:30 pm66 °FMostly cloudy.10 mph60%30.15 "HgN/A
7:00 pm66 °FOvercast.12 mph64%30.15 "HgN/A
6:30 pm66 °FMostly cloudy.10 mph64%30.15 "HgN/A
6:00 pm66 °FOvercast.9 mph68%30.15 "HgN/A
5:30 pm66 °FOvercast.12 mph64%30.15 "HgN/A
5:00 pm66 °FOvercast.10 mph68%30.15 "HgN/A
3:30 pm64 °FMostly cloudy.12 mph73%30.15 "HgN/A
3:00 pm64 °FOvercast.9 mph73%30.15 "HgN/A
2:30 pm64 °FMostly cloudy.10 mph73%30.15 "HgN/A
2:00 pm64 °FMostly cloudy.9 mph73%30.15 "HgN/A
1:30 pm63 °FMostly cloudy.9 mph77%30.15 "HgN/A
1:00 pm63 °FOvercast.10 mph77%30.15 "HgN/A
12:30 pm63 °FOvercast.9 mph77%30.15 "HgN/A
12:00 pm63 °FOvercast.13 mph73%30.15 "HgN/A
Weather by CustomWeather, © 2017

See weather overviewHow to use our weather pages